Location: Unspecified
(34.7871°N, 0.0000°E)
Time: 20:09:11
(UTC+00:00)

Vanguard 2 - Visible Passes

Search period start: 04 April 2026 00:00
Search period end: 14 April 2026 00:00
Orbit: 554 x 2896 km, 32.9° (Epoch: 29 March)

Date Brightness Start Highest point End Pass type
(mag) Time Alt. Az. Time Alt. Az. Time Alt. Az.
4 Apr 10.0 20:01:33 10° W 20:12:24 59° SSW 20:21:32 29° SE visible
4 Apr 10.8 22:11:41 10° W 22:22:27 31° SW 22:22:27 31° SW visible
5 Apr 10.2 20:13:32 10° W 20:24:14 51° SSW 20:32:33 29° SSE visible
5 Apr 11.1 22:24:30 10° W 22:33:29 24° SW 22:33:29 24° SW visible
6 Apr 10.3 20:25:37 10° W 20:36:03 43° SSW 20:43:38 28° SSE visible
6 Apr 11.3 22:37:55 10° WSW 22:44:33 18° SW 22:44:33 18° SW visible
7 Apr 9.6 18:29:09 10° W 18:37:36 63° SSW 18:51:33 10° ESE visible
7 Apr 10.5 20:37:50 10° W 20:47:53 36° SSW 20:54:45 25° SSE visible
7 Apr 11.5 22:52:40 10° WSW 22:55:41 12° SW 22:55:41 12° SW visible
8 Apr 9.8 18:41:05 10° W 18:49:28 56° SSW 19:03:07 10° SE visible
8 Apr 10.8 20:50:16 10° W 20:59:43 29° SSW 21:05:56 22° S visible
9 Apr 10.0 18:53:03 10° W 19:01:20 47° SSW 19:14:30 10° SE visible
9 Apr 11.0 21:03:04 10° WSW 21:11:33 23° SSW 21:17:09 18° S visible
10 Apr 10.2 19:05:06 10° W 19:13:11 39° SSW 19:25:38 10° SE visible
10 Apr 11.2 21:16:30 10° WSW 21:23:25 17° SSW 21:28:25 14° SSW visible
11 Apr 10.4 19:17:20 10° W 19:25:05 32° SSW 19:36:30 10° SSE visible
11 Apr 11.4 21:31:44 10° SW 21:35:20 11° SW 21:39:16 10° SSW visible
12 Apr 10.7 19:29:47 10° WSW 19:36:58 25° SSW 19:47:00 10° SSE visible
13 Apr 10.9 19:42:40 10° WSW 19:48:52 19° SSW 19:56:58 10° S visible
